Helicity
401 413 436 414 406 235 283 282 249 247 232 209 168 118 95 137 118 121 98 71 75 80 66 59 81 104 127 136 143 154 151 143 140 143 104 73 122 79
446 480 469 440 415 458 384 292 277 259 209 183 145 139 140 137 112 110 96 65 66 69 71 87 105 122 113 104 107 101 112 102 86 87 74 67 62 50
476 458 460 416 458 479 540 413 303 160 182 166 157 159 163 141 123 117 103 113 128 85 104 132 139 118 103 98 75 66 64 57 45 45 43 57 73 67
479 509 421 444 386 320 318 169 125 133 157 145 154 150 130 110 103 107 106 123 133 95 102 118 117 88 74 61 70 69 60 51 56 51 54 56 50 41
422 346 366 342 229 130 119 90 103 110 140 156 146 132 107 95 102 115 132 144 140 90 87 90 84 71 55 57 63 78 63 55 58 62 67 72 50 39
284 307 262 180 144 92 81 102 118 137 149 153 144 143 117 87 124 130 129 150 157 134 109 74 55 59 61 69 69 62 49 49 54 60 63 49 37 31
241 178 136 95 92 79 102 124 149 152 142 143 142 149 135 131 128 137 153 134 124 113 124 126 139 163 186 113 83 49 51 52 52 50 50 50 51 38
138 47 74 105 145 160 136 114 105 133 144 152 160 142 130 135 167 144 139 101 88 63 119 148 130 165 171 153 53 33 35 34 43 52 55 57 45 33
84 103 117 130 137 124 115 125 135 137 152 150 152 137 151 139 145 119 92 109 119 130 121 173 143 167 133 124 41 33 21 18 32 41 46 48 35 30
103 103 110 121 123 126 135 149 139 126 133 140 134 138 125 91 91 103 92 128 156 147 148 210 150 154 133 137 60 -3 2 21 42 53 55 43 35 32
118 118 107 121 121 120 136 136 117 117 109 81 86 59 42 22 43 93 107 125 139 148 172 156 189 173 149 104 52 -3 20 44 49 51 45 1 13 23
105 108 107 109 105 117 174 155 137 119 111 90 75 50 49 57 45 94 136 158 161 148 165 242 239 192 145 233 192 186 146 79 31 10 1 -14 -16 11
127 139 139 134 153 159 132 130 98 74 87 39 29 46 57 77 94 112 128 194 177 222 236 184 286 226 264 274 264 224 197 182 156 113 61 14 -9 -35
164 164 149 139 127 112 104 72 55 57 24 27 39 61 83 96 104 108 117 146 201 202 169 165 277 247 237 235 243 247 228 229 195 160 150 99 32 12
143 136 129 103 82 70 43 35 31 26 32 49 63 93 121 117 115 126 127 142 170 188 183 179 218 194 224 267 286 256 155 186 121 83 80 90 92 68
143 108 65 45 36 31 19 8 21 22 34 56 81 97 105 117 122 145 145 128 133 158 173 186 193 215 235 240 237 271 234 203 168 148 116 113 106 103
91 54 40 26 3 2 13 30 35 40 61 73 87 93 110 111 130 140 172 173 199 187 163 144 161 207 248 214 196 223 202 205 231 223 158 147 128 97
42 19 7 -0 1 14 25 39 55 52 78 87 92 109 126 136 136 153 169 181 172 179 189 191 160 145 151 181 230 278 280 268 246 183 138 117 162 134
13 10 15 9 20 34 43 51 68 88 101 109 109 132 151 169 137 179 180 165 158 184 216 211 195 177 166 192 230 215 198 196 174 178 158 164 205 223
23 24 17 21 34 46 53 62 75 84 89 105 133 144 140 149 169 195 200 183 173 186 191 179 163 167 152 141 155 219 127 156 187 218 210 211 247 252
23 29 36 41 50 59 65 75 89 86 73 96 112 137 145 150 171 194 211 136 121 178 185 182 179 95 149 141 141 169 177 135 139 150 166 157 148 148
31 36 42 52 61 70 77 81 88 88 103 124 137 144 151 168 190 188 193 199 205 198 216 225 176 167 149 110 114 127 164 150 125 81 77 48 91 93
41 46 51 62 75 84 84 89 97 103 114 136 136 145 151 177 193 213 217 230 240 190 170 177 180 166 141 107 82 117 134 140 129 116 113 41 52 85
Wind_Speed
38 38 40 41 42 42 43 45 52 60 61 55 54 47 48 62 73 73 73 75 81 86 86 86 87 88 88 87 88 89 90 90 92 93 93 92 95 95
36 37 40 39 43 43 45 49 55 56 65 56 62 61 61 71 71 72 74 78 82 87 90 89 89 88 89 88 88 90 92 93 94 94 94 92 92 92
35 36 38 40 44 47 51 53 58 58 71 65 63 65 70 73 74 74 76 80 83 87 90 90 89 88 88 88 89 89 91 90 90 89 88 89 88 89
35 38 40 42 47 48 55 59 56 53 63 74 68 70 71 72 74 78 79 80 84 86 89 87 87 86 85 84 85 84 84 85 87 87 88 89 87 88
34 38 43 48 51 51 53 50 52 58 60 68 78 68 70 73 79 78 82 84 81 82 84 85 83 82 80 79 82 85 86 85 86 85 84 84 84 84
36 42 45 48 49 52 51 52 55 59 63 69 75 78 75 75 78 87 89 83 85 80 80 78 77 78 78 82 83 84 84 85 84 83 82 83 84 85
44 45 47 48 47 52 54 55 60 62 68 76 80 78 80 82 86 86 90 88 84 77 79 75 76 75 76 79 81 81 81 81 81 82 83 83 83 84
47 47 45 45 49 54 59 59 60 63 71 74 78 82 83 84 83 85 88 91 92 69 77 85 78 81 80 76 78 81 82 82 82 80 79 78 79 83
39 42 46 51 56 59 60 62 62 64 67 71 79 81 84 81 83 83 80 81 83 82 85 92 82 85 81 81 83 85 84 80 76 74 73 73 75 78
42 43 50 57 61 64 65 65 65 65 68 70 72 75 72 71 70 73 77 79 77 75 72 89 86 85 83 78 80 80 76 74 73 73 73 75 81 84
46 49 56 61 62 63 67 72 73 72 70 71 67 67 68 70 68 71 74 77 83 79 71 65 75 79 79 73 63 67 71 72 73 72 88 92 94 92
52 57 60 63 65 67 70 73 78 77 72 68 67 66 61 60 60 61 64 70 70 74 58 61 64 61 62 50 58 66 68 59 36 40 51 73 84 89
58 61 63 66 68 69 70 71 70 67 63 64 62 60 59 58 58 57 55 52 54 50 46 49 48 42 37 36 45 52 49 38 31 30 33 42 45 48
64 64 64 68 68 66 63 59 59 58 54 52 54 56 56 60 61 60 55 50 43 36 34 32 37 35 32 34 35 45 43 38 36 33 35 30 23 30
60 61 65 65 61 57 55 53 48 46 46 38 43 45 50 54 55 58 57 51 44 37 33 27 25 25 26 30 33 35 34 36 26 26 23 24 27 18
55 59 57 54 52 50 48 46 38 23 29 34 37 40 48 56 60 56 58 59 54 44 39 29 25 26 29 27 29 34 29 20 21 23 23 24 24 21
53 55 54 50 50 47 45 30 25 32 36 39 41 41 48 58 60 57 52 49 48 45 38 42 41 34 32 33 31 27 24 24 22 22 19 23 22 28
51 50 47 46 46 44 45 44 36 38 39 40 38 41 45 55 63 57 52 51 50 51 44 41 40 45 46 40 24 27 25 25 25 24 27 39 27 17
46 43 42 45 44 43 45 47 49 42 40 40 38 38 40 44 53 56 59 60 59 52 46 46 46 43 41 37 40 21 29 35 29 22 25 26 31 31
42 41 44 47 44 44 47 47 49 50 49 43 39 38 39 41 47 53 53 58 57 50 46 48 48 47 40 32 39 35 14 22 18 18 17 14 17 31
41 42 45 47 45 42 44 46 46 49 48 44 39 38 40 40 41 45 46 46 47 50 48 46 43 37 33 25 24 28 26 10 13 20 16 17 19 34
40 45 48 47 46 43 43 44 45 49 52 49 43 38 37 40 39 41 47 45 47 47 43 41 44 43 31 21 31 32 22 19 36 34 30 30 48 60
42 49 51 49 46 43 43 44 42 42 44 43 41 39 39 40 39 39 40 43 46 48 48 44 46 37 24 21 27 20 22 24 46 64 61 47 39 30
Wind_Direction
287 291 298 303 305 305 309 306 308 304 308 313 315 321 319 320 321 322 323 322 321 320 319 317 315 313 312 310 309 308 307 305 304 302 301 300 299 297
288 291 299 302 307 309 306 309 307 306 306 314 314 315 317 318 320 321 321 320 320 319 318 316 314 313 311 310 309 308 306 305 304 303 302 300 299 297
292 296 299 303 306 308 309 313 309 309 306 313 316 317 317 319 320 320 321 321 320 319 318 316 315 313 312 311 309 308 307 306 305 303 302 301 300 298
297 300 303 306 308 309 310 307 309 313 312 311 315 317 318 320 321 320 321 321 321 320 319 318 316 315 314 312 311 310 310 308 306 304 302 300 299 297
303 304 306 306 305 311 311 314 316 315 315 313 314 319 320 322 321 321 321 322 322 321 320 320 319 318 316 315 313 311 309 308 306 304 302 300 298 296
309 309 310 310 313 309 314 319 319 318 317 316 316 318 320 323 323 322 322 323 322 324 322 322 321 320 317 315 314 312 309 307 305 304 303 300 297 295
311 312 314 316 320 316 320 321 319 319 317 316 317 320 321 322 322 323 321 323 323 324 324 325 323 321 319 317 315 312 311 308 306 304 303 302 300 297
315 316 326 328 328 327 324 323 321 321 319 320 320 320 320 321 323 323 323 323 323 330 328 323 324 320 319 318 316 314 311 309 307 306 305 304 301 297
328 334 330 329 328 327 327 325 325 324 323 322 320 320 320 322 323 324 325 324 324 325 325 322 324 320 320 319 317 315 312 311 310 309 308 306 303 299
339 339 334 330 330 328 327 327 327 326 324 323 322 322 323 325 326 326 326 326 326 328 328 324 328 325 324 322 320 317 315 313 313 312 309 305 300 295
344 340 335 333 333 332 329 326 326 325 326 325 326 326 327 328 330 330 330 331 330 333 334 332 335 332 330 328 328 324 320 316 314 314 299 278 283 287
342 339 338 336 334 332 330 328 326 326 328 328 329 331 335 337 339 338 337 335 337 340 351 344 343 346 348 345 338 330 326 326 315 266 260 263 267 282
341 340 339 338 336 335 332 331 330 332 333 333 336 339 342 344 345 345 345 343 342 338 340 346 347 342 341 334 346 341 336 327 314 304 275 262 257 251
343 343 343 341 340 340 340 340 339 341 344 347 347 349 351 349 348 348 348 347 343 331 327 337 343 339 327 317 313 339 338 331 327 321 326 320 293 256
350 350 349 349 350 352 351 352 358 360 1 13 6 2 357 353 353 352 352 352 350 344 341 337 331 325 326 318 310 305 303 338 291 274 275 267 260 276
358 358 0 3 5 7 11 14 28 54 34 20 12 7 2 358 355 357 356 355 355 355 358 352 345 340 326 316 309 304 303 318 320 286 274 267 259 252
4 6 10 17 18 23 26 50 53 36 25 17 12 11 6 0 357 359 360 360 358 356 351 356 355 347 338 332 321 311 302 307 312 303 298 280 274 253
11 15 22 23 22 22 20 19 28 23 19 16 15 12 9 4 359 1 2 0 359 358 356 354 352 353 354 352 331 320 308 296 306 291 268 262 272 278
17 23 21 13 15 16 12 7 6 13 13 13 13 11 9 7 4 3 1 360 358 358 356 356 356 356 349 342 353 338 279 280 281 288 269 260 260 261
18 19 12 6 10 10 5 4 2 2 5 9 11 11 9 7 5 3 2 359 358 357 356 359 360 359 354 313 301 303 321 277 285 286 288 282 261 257
15 11 4 2 6 9 5 3 2 1 2 5 9 9 8 6 2 1 359 356 356 358 357 357 357 349 348 336 322 298 296 346 279 274 292 338 341 350
9 360 357 359 1 5 4 3 2 360 358 0 5 6 5 3 358 356 359 357 358 357 354 354 358 1 358 320 291 290 305 331 8 3 1 357 347 338
0 351 351 356 0 3 3 2 3 2 2 1 3 4 3 359 358 356 355 356 357 358 358 356 359 0 340 317 293 309 317 342 3 355 354 357 353 337